Vorticity
6 10 10 9 10 10 8 6 5 5 9 7 6 9 5 6 10 7 5 9 11 9 5 6 12 13 14 11 9 14 13 14 14 10 7 3 7 9 5 5 6 5 1 3 5 6 8 4 3 5 5 3 3 3 2 3 4 6 6 6 6 6 5 5 5 5 5 4 4 5 6 5 4 5 5 5 5 6 7 7 7 6 5 5 5 6 5 6 6 6 6 6 5 4 4 5 5
5 11 2 2 7 5 9 9 6 5 5 6 5 8 9 7 8 10 10 8 9 6 2 6 10 11 16 17 16 16 16 15 11 9 8 6 9 7 5 6 6 4 3 5 6 4 6 5 4 4 5 8 7 4 3 3 5 6 6 5 5 6 6 6 5 5 4 5 6 7 5 5 5 6 6 6 6 6 5 5 5 5 5 5 6 6 6 5 5 6 7 7 5 3 4 5 5
1 6 3 2 2 -1 2 8 11 6 3 6 4 5 10 11 9 9 10 8 7 7 7 8 3 -0 7 13 15 15 16 11 5 5 7 7 5 6 4 4 3 2 4 4 6 5 4 6 8 7 5 9 7 3 4 4 5 5 5 5 5 6 6 6 5 5 6 7 7 7 6 6 6 6 6 6 6 6 6 5 5 5 6 5 6 6 6 5 6 6 7 8 6 5 6 7 7
2 3 6 5 2 -2 -2 4 10 8 6 7 4 5 8 7 8 9 8 9 8 9 10 4 -2 -2 2 7 12 16 13 7 4 1 0 3 2 1 -0 1 3 3 7 7 7 7 3 3 7 6 3 5 6 5 5 5 6 5 5 5 6 6 6 6 6 7 7 7 8 7 7 7 7 7 7 6 7 7 7 7 6 6 6 6 6 6 5 6 7 7 7 7 6 7 7 7 8
5 7 10 11 6 1 1 4 8 8 6 6 5 5 8 5 5 9 7 9 8 7 7 -0 -0 5 6 9 14 14 7 6 5 -2 -4 1 3 3 5 7 10 8 7 6 4 2 2 3 3 4 3 5 7 6 6 6 6 6 6 5 6 6 6 7 7 8 7 7 8 7 8 7 7 8 8 8 8 8 8 8 7 6 5 5 5 5 4 5 7 6 6 6 6 7 6 6 5
5 5 8 12 10 6 3 1 6 5 2 6 8 3 7 7 3 7 7 7 7 5 5 1 1 8 9 10 15 14 7 7 4 -0 -1 -3 -2 2 3 4 5 4 2 3 4 4 5 5 4 4 4 5 7 7 6 6 6 6 6 5 6 7 7 7 8 8 7 7 8 8 8 8 8 9 9 8 8 8 8 8 7 7 5 6 6 4 4 6 6 4 5 5 6 6 5 5 4
2 3 6 7 8 11 8 5 8 7 3 4 8 5 2 6 4 4 6 7 9 7 5 2 2 3 4 6 10 14 13 9 1 -0 1 -3 2 4 3 3 1 3 5 6 8 7 6 5 6 7 6 5 7 6 5 6 6 6 6 7 7 6 7 7 8 7 7 7 9 9 8 9 10 10 10 9 8 7 7 6 5 6 5 6 5 4 6 7 5 4 4 4 5 7 6 6 4
0 2 5 5 7 10 8 5 5 5 3 2 7 6 0 6 8 4 3 4 7 7 5 1 0 1 2 8 11 12 16 14 7 3 5 7 13 13 9 9 6 6 6 6 6 5 6 6 8 8 8 6 6 6 7 7 6 6 6 7 6 6 8 8 8 7 7 8 9 8 8 9 11 11 11 9 8 7 6 6 5 6 4 4 5 5 5 5 6 5 4 4 4 5 6 6 5
2 1 -0 2 6 9 7 2 3 4 3 8 8 4 2 6 8 6 4 4 6 6 5 -2 -0 6 4 10 15 13 13 13 10 7 9 11 12 10 8 7 4 5 5 6 6 7 8 8 9 9 8 7 7 7 7 7 6 6 6 6 7 8 9 9 8 7 7 8 9 8 9 11 11 12 12 12 12 10 9 9 8 8 6 6 7 6 5 4 6 6 4 4 4 6 6 6 6
-2 -2 1 3 7 9 9 0 1 5 2 7 5 3 5 5 8 8 5 5 8 7 4 -1 3 8 6 11 13 10 8 7 7 7 8 6 5 4 2 1 1 2 6 7 7 7 8 8 9 10 9 8 7 7 7 7 5 5 7 7 8 9 10 10 9 7 7 8 8 8 9 11 10 10 10 11 12 13 13 12 11 10 10 10 9 8 8 6 7 7 4 3 3 7 7 7 5
-4 1 5 3 4 4 9 11 12 10 1 2 5 6 3 5 7 2 6 8 5 5 4 5 7 6 8 11 10 7 7 7 7 6 7 4 2 1 -1 1 1 2 5 6 6 8 8 9 10 10 8 8 7 7 6 5 6 7 7 7 8 10 10 11 9 6 5 7 8 8 8 8 8 7 6 7 7 9 9 9 10 10 9 9 10 11 11 9 7 5 3 6 9 9 6 7 7
5 5 4 3 4 2 14 24 20 14 3 1 4 2 4 10 7 1 8 8 4 6 5 7 7 5 9 8 8 9 7 7 6 5 6 5 3 1 -0 2 2 2 5 6 6 8 9 10 10 10 8 7 7 6 6 6 7 7 6 7 9 10 10 10 9 6 5 8 9 8 7 7 6 5 5 5 6 7 7 9 10 11 12 12 12 11 10 7 5 5 5 9 14 10 2 4 8
8 2 4 5 3 4 10 7 1 5 4 5 11 8 11 8 3 10 9 2 4 7 5 8 6 6 9 7 11 12 8 7 5 6 7 5 4 1 -0 2 4 5 7 7 6 9 10 9 9 8 7 6 6 5 5 6 7 7 7 9 10 10 11 11 9 7 8 9 8 7 7 7 7 7 7 8 9 10 10 11 11 10 11 11 11 9 7 7 7 9 9 9 11 10 6 8 10
1 -0 7 1 -0 6 2 -1 -2 3 1 4 18 16 9 3 4 11 7 4 7 7 6 9 8 7 7 6 10 10 7 9 7 7 6 5 5 3 2 2 5 6 7 7 5 9 9 8 8 7 6 5 5 5 4 6 7 8 9 11 10 10 10 11 10 9 8 7 7 7 8 8 8 9 10 11 11 11 10 10 10 9 8 8 9 9 9 10 12 12 12 12 13 13 13 13 11
4 -1 4 -2 0 4 -5 2 2 -2 -1 0 10 9 2 4 9 8 6 9 7 9 9 6 6 6 8 7 8 9 7 9 7 5 5 6 6 4 4 4 7 7 7 7 5 9 10 7 6 5 5 4 4 4 4 6 7 8 10 11 10 10 9 9 8 7 6 6 6 7 9 9 8 9 9 10 10 10 10 9 9 9 9 8 8 9 9 10 11 11 12 14 15 15 15 14 11
8 1 1 -1 -3 -1 -4 2 -3 -7 0 1 5 7 7 8 10 9 8 11 7 7 5 4 7 6 11 8 7 12 8 7 7 4 5 5 5 4 4 5 8 8 6 7 7 10 10 7 5 5 5 5 5 5 5 6 7 9 11 10 9 8 7 6 6 6 7 7 6 6 8 9 8 7 7 8 7 7 8 8 7 7 7 7 6 6 6 7 8 8 9 9 10 11 11 11 10
8 7 5 0 -3 2 2 1 -1 2 3 0 7 11 12 8 6 8 8 13 10 5 3 6 7 4 8 5 4 11 8 7 6 3 4 3 3 3 3 4 7 7 7 7 8 11 9 6 5 6 8 8 8 7 7 7 7 9 10 9 7 5 5 5 5 6 6 7 7 6 6 8 9 8 6 5 5 6 6 5 6 6 6 7 7 7 5 5 6 7 7 7 7 8 8 8 9
5 9 7 3 2 4 6 3 -0 6 5 -1 7 10 9 8 7 9 11 15 15 14 10 5 6 5 7 8 7 11 9 6 5 3 2 2 2 3 2 4 6 7 8 7 8 10 7 5 6 8 11 11 11 10 9 7 7 8 8 7 5 4 4 4 5 5 5 6 7 6 5 6 8 7 6 5 5 6 6 7 6 7 7 7 7 8 7 5 4 5 5 6 6 7 7 6 7
4 15 18 8 2 -0 5 7 1 5 7 1 6 9 6 8 12 10 9 11 18 23 12 4 7 6 6 9 9 11 10 7 6 3 2 3 3 3 2 4 6 6 10 7 8 10 4 3 6 9 11 12 13 12 10 7 6 6 6 5 4 4 4 4 5 5 5 7 8 8 7 6 7 7 8 8 7 7 7 7 7 7 8 8 7 6 6 6 5 4 4 5 4 5 4 4 5
5 14 16 6 1 -0 6 8 5 6 4 2 5 9 7 8 13 11 8 7 12 16 7 7 9 3 4 6 9 13 10 7 6 4 4 6 5 3 4 6 6 7 10 9 10 9 2 3 7 9 11 13 14 12 9 6 5 5 4 4 4 3 4 5 5 6 7 8 9 8 8 8 8 7 6 6 4 4 5 5 6 7 6 5 5 5 5 5 3 3 4 4 4 4 4 4 4
3 6 4 6 5 3 17 13 3 4 1 5 3 4 9 6 8 10 13 11 9 11 6 9 9 5 9 8 9 12 9 7 5 3 5 6 6 4 6 8 6 8 10 9 12 8 2 5 7 8 11 13 13 10 7 5 5 5 4 4 4 5 5 6 7 7 7 8 8 7 6 5 6 6 4 4 4 5 5 5 7 6 4 4 6 6 6 4 3 4 4 4 4 4 4 5 3
3 3 3 13 8 -0 16 9 3 9 2 5 2 0 8 5 4 11 24 22 8 6 5 9 9 7 13 10 9 10 9 10 5 3 5 7 7 5 6 6 6 9 10 11 12 6 4 6 6 8 9 11 12 8 5 4 5 5 4 5 5 5 7 7 6 6 6 6 6 5 5 4 4 4 4 6 7 7 6 5 5 5 6 8 8 6 6 6 7 8 5 4 5 5 5 6 5
2 2 3 6 0 2 9 -2 4 14 5 9 5 0 6 1 3 15 30 26 9 5 6 10 9 7 13 11 11 12 11 11 8 6 6 7 7 7 7 7 8 10 10 12 10 4 5 6 3 6 8 9 9 6 5 4 4 4 3 4 5 6 6 6 5 6 6 4 3 3 5 6 5 4 4 5 4 5 5 4 4 5 6 6 6 5 6 7 8 7 5 5 5 5 5 6 6
4 -0 1 -2 -4 7 6 -2 5 10 12 12 -4 -1 9 2 4 14 16 10 8 11 12 15 10 5 10 12 12 13 14 13 11 10 8 6 7 9 8 7 9 10 11 11 7 5 7 5 1 2 6 8 7 5 5 4 5 4 4 4 5 7 8 8 5 5 6 4 4 3 4 6 5 4 4 5 4 5 5 4 5 6 6 5 6 5 4 5 5 5 4 5 5 4 5 4 5
8 -2 -4 -4 -1 4 -5 -1 6 8 19 5 -16 0 13 6 3 6 4 1 4 8 10 13 10 6 7 10 10 8 13 14 13 14 10 6 7 10 8 9 10 10 11 9 6 6 6 5 2 0 3 5 6 6 5 5 5 5 4 4 5 7 9 8 4 2 3 4 4 3 4 5 4 2 3 5 6 7 6 6 7 6 5 5 5 4 3 5 4 4 5 5 5 4 4 4 4
4 -2 -5 -8 -5 -2 -8 -2 -2 2 20 8 -6 3 6 9 5 -1 4 7 4 4 8 10 10 11 9 8 8 5 9 13 16 17 10 6 9 9 8 11 10 10 11 6 4 6 5 5 4 1 1 2 5 6 6 5 5 5 5 6 7 7 6 5 3 2 3 4 5 5 5 5 5 4 4 5 6 7 6 6 6 5 4 4 3 2 3 5 5 4 5 6 6 6 5 5 5
-1 -3 -6 -9 -11 -7 -1 5 -5 -7 12 18 11 4 0 7 7 -1 3 10 8 4 7 9 10 12 10 8 8 7 7 9 16 18 9 6 8 8 11 14 10 10 9 5 4 6 6 5 3 1 0 2 5 6 6 6 6 6 6 8 8 7 5 3 4 5 4 4 5 5 6 6 6 6 4 4 5 6 6 5 4 3 5 5 3 3 3 4 5 4 5 5 6 7 6 6 6
5 3 -5 -9 -11 -10 1 7 -0 -11 -0 18 14 2 -0 2 6 6 5 9 8 4 6 7 8 10 11 11 9 8 7 8 15 16 9 6 8 9 14 14 8 8 9 5 4 6 7 6 4 3 2 4 6 7 8 8 8 7 7 6 5 5 4 4 5 5 4 4 4 5 7 8 6 6 4 4 5 5 4 4 4 4 6 7 5 4 5 5 4 4 3 4 5 6 6 7 8
10 20 8 -4 -7 -6 -2 3 4 -6 -8 9 11 2 1 -0 5 7 7 12 8 3 6 6 7 9 10 13 13 13 10 9 15 15 8 6 8 10 13 11 6 9 9 6 5 6 7 7 5 4 4 5 6 8 9 9 8 7 6 4 3 3 3 4 5 5 6 5 4 5 8 9 8 7 6 5 5 5 4 5 5 5 5 5 4 4 5 5 4 3 2 3 5 5 6 6 8
12 27 19 4 1 0 -0 1 2 -1 -1 7 9 4 1 1 4 5 7 11 7 5 6 5 9 9 8 11 15 16 10 9 16 16 9 7 7 9 12 8 6 9 9 6 5 5 6 6 5 5 5 5 5 6 8 8 7 6 5 4 4 4 4 4 5 6 7 6 5 6 7 9 9 8 6 5 5 5 5 5 4 4 3 3 5 5 4 5 4 3 3 4 5 5 6 6 6
8 9 6 -1 -0 -0 -2 3 3 2 5 11 15 11 5 5 3 3 7 7 8 11 6 4 8 8 8 11 14 17 12 10 16 16 10 8 8 8 9 7 7 10 7 6 5 4 5 5 6 6 6 6 6 7 9 7 5 5 5 4 4 4 4 5 5 6 6 7 6 5 7 8 8 7 6 5 4 4 5 5 4 4 3 2 3 4 4 5 4 3 3 4 5 6 5 5 5
5 7 11 4 5 3 -5 6 14 7 2 7 15 10 2 6 5 5 8 7 10 15 8 4 8 8 7 11 15 16 14 13 15 16 12 9 8 8 8 6 8 9 6 5 6 4 5 6 8 8 7 5 5 8 11 10 5 4 3 3 4 4 4 4 4 4 5 6 6 6 8 8 7 6 5 4 3 4 6 5 4 2 1 1 1 1 2 3 3 3 4 4 5 5 6 6 6
1 11 20 17 17 9 -3 -1 6 7 2 1 5 5 3 8 10 8 9 5 5 13 11 4 7 9 8 11 15 15 14 13 12 13 12 8 7 8 8 6 8 8 5 6 6 4 5 6 7 7 5 4 5 6 9 11 9 6 4 4 4 4 4 4 4 4 4 5 5 7 7 6 6 6 5 4 4 4 4 2 1 1 1 2 2 3 4 6 6 6 6 6 6 5 6 7 8
11 0 0 21 27 11 2 -5 -4 3 1 -1 0 9 16 10 7 9 10 5 3 13 15 6 5 10 11 11 11 12 15 13 11 11 11 9 7 8 8 7 8 7 5 7 6 4 4 4 5 5 5 5 6 5 6 8 9 10 8 5 5 5 4 3 3 4 4 5 6 6 5 6 7 6 5 5 4 2 1 2 2 3 3 4 5 6 7 10 10 10 9 8 8 7 7 7 8
18 -7 -10 35 36 8 10 5 1 -1 -5 -1 -6 -3 7 7 16 19 11 4 3 11 14 10 7 8 12 12 8 8 12 13 13 14 15 14 11 10 9 7 8 7 6 8 6 3 3 4 4 4 5 6 6 6 5 5 7 8 9 8 7 5 4 3 3 4 5 6 6 6 5 7 7 5 4 2 1 2 2 3 4 6 7 6 7 8 9 11 12 12 12 10 10 10 9 8 8
14 -2 6 47 28 -1 7 3 2 -1 -4 2 -5 -4 -4 -0 20 19 6 5 7 8 10 12 10 6 11 13 8 5 7 9 10 14 18 17 15 12 10 8 8 6 6 8 6 4 3 3 4 4 5 6 5 6 7 6 7 8 8 7 7 6 5 4 5 6 7 7 6 5 6 5 4 2 1 1 1 2 3 4 5 7 8 8 9 9 9 10 11 12 11 9 8 9 9 7 8
10 5 18 36 11 -7 -5 -8 -3 -3 -3 -7 -9 0 -8 -2 18 4 -6 4 9 9 8 12 10 5 8 11 11 6 5 7 6 11 15 15 13 10 9 8 8 8 8 9 6 4 4 2 3 4 4 5 3 4 6 7 8 8 7 6 6 7 6 6 7 7 8 8 6 5 6 3 2 2 1 2 2 2 4 7 8 9 8 7 7 7 7 7 9 10 10 9 8 7 6 6 7
7 11 21 22 10 7 -0 -6 -4 -3 2 -7 -9 2 -10 -1 16 -1 -7 -0 7 15 12 12 10 3 3 7 13 11 6 6 5 9 12 10 8 6 7 8 9 10 8 7 5 4 5 4 3 3 4 5 4 3 4 6 7 7 7 7 6 6 7 8 8 7 7 7 5 4 4 2 1 2 2 2 2 4 7 10 10 8 7 6 5 5 5 5 6 6 7 8 7 7 6 7 7
6 12 18 12 11 17 12 3 -4 -2 8 1 -1 4 -9 -6 5 6 5 -0 8 21 17 16 12 3 2 3 9 12 10 8 5 6 9 9 7 6 6 6 7 8 7 6 5 5 4 3 3 3 5 6 5 4 4 5 5 6 7 6 6 6 7 8 7 7 6 4 4 2 2 2 2 2 2 1 2 6 9 9 8 7 5 4 4 4 4 4 5 5 5 5 5 7 8 8 8
7 10 9 -0 -5 7 11 3 1 4 9 10 11 4 -10 -11 -3 2 2 3 13 19 17 18 10 4 5 3 4 7 10 12 8 6 7 8 7 7 7 5 5 6 7 6 5 6 4 4 6 5 5 7 6 4 5 5 4 4 6 6 6 6 7 7 6 6 5 3 3 2 2 2 2 2 1 1 5 9 9 7 6 4 4 3 4 6 6 7 6 5 4 4 5 6 8 8 8
9 9 9 -0 -9 4 8 -5 -2 5 1 3 5 2 -2 -3 -1 -2 -2 8 18 14 14 14 7 6 6 5 6 5 8 13 12 8 7 7 6 6 6 5 5 7 7 7 7 7 6 7 9 7 5 6 6 5 5 6 5 5 6 5 5 6 6 6 6 5 3 3 2 2 2 2 2 2 1 4 9 10 8 6 5 3 4 5 7 8 8 9 9 8 6 5 7 7 8 10 10
8 5 15 16 2 7 11 -7 -8 7 12 7 -1 -0 2 -1 2 3 -1 4 10 11 12 8 6 12 10 5 7 8 8 10 12 10 8 9 7 5 4 5 6 7 6 5 5 6 6 6 7 6 5 3 5 6 6 7 7 7 6 5 6 6 6 5 4 4 2 3 4 3 2 2 3 2 3 8 10 8 6 5 4 5 8 9 11 11 9 9 9 9 8 7 6 6 6 8 8
10 8 17 22 10 8 12 -1 -11 1 14 14 10 13 13 8 7 5 2 5 7 6 8 7 7 12 12 8 7 8 6 6 10 10 9 9 9 7 6 6 7 6 5 6 6 6 5 5 4 5 6 5 5 7 8 9 9 9 8 7 6 6 6 5 4 4 3 4 4 3 3 4 3 3 6 9 8 5 4 5 7 9 12 12 12 11 9 8 8 8 9 6 3 6 9 9 7
16 18 14 15 17 16 14 3 -7 -5 -2 -1 7 14 16 14 6 0 3 9 10 7 6 10 9 10 14 13 9 7 4 5 7 7 7 7 8 10 9 8 8 7 9 11 11 9 8 7 6 6 6 6 6 7 8 9 9 10 10 9 7 6 7 5 5 5 4 5 5 4 5 4 3 5 8 8 5 4 5 7 10 11 9 7 5 7 8 9 9 9 9 6 4 8 11 8 7
19 19 9 12 20 17 9 2 -4 -3 -4 -5 2 4 3 4 -1 -4 3 12 16 10 0 1 8 14 18 15 11 9 4 5 6 4 5 6 5 7 8 8 8 8 10 12 11 10 9 8 7 6 6 4 4 5 6 7 7 7 9 9 6 6 7 6 6 6 5 5 5 5 5 3 4 6 7 7 5 6 9 9 9 8 4 2 6 11 13 13 14 18 20 13 5 5 8 9 10
23 16 6 15 21 11 1 -2 -5 -6 -5 -1 3 2 -0 2 1 -0 6 13 7 -7 -11 -0 10 14 15 14 12 11 5 2 4 3 3 6 6 4 4 5 6 6 8 9 9 9 8 8 7 6 5 4 5 6 5 6 6 6 7 7 5 6 7 7 6 5 5 5 5 5 4 4 5 6 7 8 7 9 10 8 6 4 2 5 13 18 17 22 30 33 26 15 9 12 19 24 27
23 13 8 15 15 6 -3 -5 -4 -8 -9 -4 0 1 2 4 8 8 7 4 -9 -17 -5 8 11 10 11 14 12 10 8 1 1 4 3 5 5 2 3 4 4 5 5 6 6 7 7 6 7 7 6 6 6 7 6 6 7 7 6 6 5 6 6 7 6 5 5 4 5 4 4 5 5 6 8 9 10 11 8 5 4 3 5 9 13 15 16 22 30 25 14 10 13 15 17 18 20
19 13 8 9 10 8 -0 -2 -3 -12 -11 -1 -0 0 2 -2 4 11 7 3 -0 -2 4 7 7 6 5 11 10 9 13 7 0 3 4 4 2 0 2 5 6 5 5 5 4 4 5 5 6 6 6 7 5 4 5 5 6 8 7 7 7 6 7 7 5 5 4 4 6 5 4 6 5 6 9 10 11 10 5 4 4 3 6 9 12 14 14 15 17 14 11 12 9 4 4 5 6
15 15 9 6 10 6 -5 1 1 -14 -8 8 5 -1 -2 -9 -5 6 5 5 7 3 6 8 6 4 5 11 11 7 13 11 3 3 4 1 1 2 4 4 6 7 4 3 2 4 5 5 5 5 5 6 5 5 5 5 6 6 6 7 7 7 8 7 6 5 6 7 6 5 6 6 5 7 11 12 10 7 4 5 4 4 7 9 12 14 12 10 11 11 9 7 3 1 3 4 4
13 18 13 7 7 -2 -6 10 10 -7 -6 9 11 4 -2 -7 -6 2 2 3 7 5 8 8 1 1 6 10 10 10 14 12 6 9 7 2 2 4 5 3 3 5 4 2 3 4 3 3 4 4 5 6 7 7 5 5 7 7 6 7 6 7 7 6 6 6 7 8 6 6 7 5 6 11 12 10 7 7 7 5 3 5 6 7 9 8 7 6 5 5 5 4 4 5 6 5 5
12 19 17 11 12 4 3 13 9 1 -3 4 13 2 -9 -7 -5 4 6 1 4 6 4 2 -1 7 12 9 11 13 14 13 11 12 7 -0 1 4 5 3 3 4 4 6 6 3 1 2 4 4 5 6 8 9 8 6 6 6 8 9 8 7 6 6 6 6 6 6 5 7 7 5 9 14 11 8 10 10 6 3 3 5 4 4 5 5 6 5 3 2 4 4 5 6 6 7 7
9 15 13 11 18 14 8 7 9 11 1 1 15 2 -11 -6 -5 6 11 -0 -1 -1 -3 1 5 12 12 7 9 12 13 12 10 9 6 2 5 10 9 6 5 6 8 9 6 1 0 1 3 5 5 6 8 10 10 8 7 7 8 9 10 8 7 7 6 6 6 4 7 8 5 8 14 13 9 8 9 5 3 4 7 5 2 3 5 5 5 3 3 2 2 2 4 4 4 5 5
8 9 8 10 18 20 14 7 13 17 -3 -4 17 9 -2 3 2 6 9 4 8 4 -2 2 6 9 9 5 8 14 14 10 5 4 4 4 6 8 11 10 6 6 8 9 7 3 4 6 5 4 3 6 10 11 11 9 7 8 6 6 7 6 7 7 6 6 6 5 9 7 4 12 15 10 9 6 -1 -2 3 8 9 5 3 4 5 5 2 -0 1 2 2 2 1 2 3 3 4
6 4 7 12 15 19 19 11 12 15 -0 2 25 19 4 8 12 14 13 14 17 10 3 5 6 7 8 7 10 14 17 13 8 6 5 5 5 4 6 8 6 7 9 9 8 6 6 7 5 5 6 7 10 12 12 10 8 6 6 5 5 6 7 8 10 9 7 8 9 5 8 16 14 9 9 2 -4 1 8 8 7 6 8 9 8 6 4 3 2 2 2 2 1 1 1 2 3
4 5 8 9 6 9 14 9 9 14 3 5 25 27 16 13 14 14 17 18 13 5 7 9 6 4 4 7 11 17 27 25 13 9 12 11 7 5 9 9 7 9 9 7 7 8 7 6 5 6 7 6 9 14 14 12 10 8 7 5 4 8 9 12 18 14 9 10 8 5 13 16 10 7 8 3 3 8 8 6 7 8 10 10 9 7 6 6 6 4 4 4 4 4 2 2 2
3 4 4 3 3 5 6 3 9 12 1 -6 8 20 23 22 21 17 15 12 4 2 6 4 1 4 6 7 7 12 27 33 23 15 15 11 7 9 11 8 4 3 3 6 12 15 13 8 6 6 7 8 9 14 16 13 13 12 10 9 9 11 16 24 28 17 9 9 6 8 15 13 6 5 7 6 7 7 5 6 9 9 8 6 5 5 5 5 6 6 5 4 5 5 5 5 4
2 0 1 -0 1 4 0 -0 7 9 2 -4 -3 1 9 18 26 29 23 13 5 2 3 6 9 11 8 3 0 3 11 21 26 22 15 9 9 15 13 5 4 3 2 5 11 17 15 11 10 7 7 11 11 12 15 13 12 13 13 14 15 16 25 32 25 12 7 7 8 13 13 7 4 6 8 7 6 5 6 8 8 7 4 2 2 3 3 4 4 4 4 4 4 4 6 7 7
8 6 7 9 9 6 2 3 7 4 1 2 -6 -10 2 13 18 27 27 17 15 13 5 5 12 10 3 1 2 2 2 9 19 23 20 14 11 14 11 5 6 7 7 9 10 12 11 9 10 9 7 11 12 12 13 12 11 14 17 18 18 21 28 25 13 6 7 8 11 13 7 2 5 8 8 6 5 6 8 8 7 4 2 2 4 3 3 5 6 5 5 4 3 3 5 7 8
Height
5905 5905 5905 5905 5904 5904 5904 5904 5904 5904 5905 5905 5904 5904 5903 5903 5904 5905 5905 5905 5904 5905 5905 5905 5905 5906 5906 5906 5906 5906 5906 5908 5909 5909 5909 5909 5910 5910 5910 5910 5909 5909 5909 5909 5909 5909 5909 5909 5910 5910 5910 5910 5910 5910 5911 5911 5912 5912 5913 5913 5914 5914 5915 5915 5916 5915 5915 5915 5914 5914 5914 5913 5913 5913 5914 5914 5914 5914 5914 5913 5913 5912 5912 5911 5911 5911 5911 5911 5911 5910 5910 5910 5910 5910 5910 5910 5910
5906 5906 5905 5905 5905 5905 5904 5904 5904 5904 5905 5905 5905 5904 5903 5904 5905 5905 5905 5905 5905 5906 5906 5906 5906 5906 5906 5906 5906 5907 5907 5908 5910 5910 5910 5910 5911 5912 5911 5911 5910 5911 5910 5910 5910 5910 5910 5911 5911 5911 5912 5912 5911 5911 5912 5912 5913 5914 5914 5914 5915 5915 5916 5916 5916 5915 5915 5915 5915 5915 5914 5914 5914 5914 5915 5914 5914 5914 5914 5913 5913 5913 5912 5912 5912 5912 5911 5911 5911 5911 5911 5910 5910 5910 5911 5911 5911
5906 5906 5906 5905 5905 5905 5905 5904 5904 5904 5905 5906 5905 5905 5904 5904 5904 5905 5905 5906 5906 5906 5906 5906 5906 5906 5907 5907 5907 5907 5908 5909 5911 5911 5911 5912 5912 5912 5913 5913 5912 5912 5911 5911 5911 5910 5910 5911 5911 5912 5913 5913 5912 5912 5913 5913 5914 5915 5915 5915 5916 5916 5917 5917 5916 5916 5915 5915 5915 5915 5915 5914 5914 5915 5915 5914 5914 5914 5914 5914 5913 5913 5913 5913 5912 5912 5912 5912 5912 5911 5911 5911 5911 5911 5911 5911 5911
5907 5907 5907 5906 5906 5906 5906 5906 5906 5905 5905 5906 5905 5905 5905 5905 5905 5906 5905 5906 5906 5906 5906 5907 5907 5907 5907 5907 5907 5908 5909 5910 5912 5912 5912 5913 5913 5913 5913 5913 5913 5913 5912 5912 5911 5911 5911 5912 5912 5912 5913 5913 5913 5914 5914 5914 5915 5916 5916 5916 5916 5917 5917 5917 5916 5916 5915 5915 5916 5915 5915 5915 5915 5916 5915 5914 5914 5914 5914 5914 5914 5914 5913 5913 5913 5913 5912 5913 5913 5912 5912 5912 5912 5912 5912 5912 5912
5907 5907 5907 5907 5907 5907 5907 5906 5906 5906 5905 5905 5905 5905 5905 5904 5905 5906 5906 5906 5906 5907 5907 5907 5908 5907 5908 5908 5908 5909 5910 5911 5913 5913 5912 5914 5915 5914 5914 5914 5914 5914 5913 5913 5912 5912 5911 5912 5913 5913 5914 5914 5914 5915 5915 5915 5916 5916 5916 5916 5917 5917 5917 5917 5916 5916 5916 5915 5916 5916 5915 5915 5915 5916 5915 5914 5914 5914 5914 5914 5914 5914 5914 5914 5914 5913 5913 5914 5913 5913 5913 5913 5913 5913 5913 5913 5913
5908 5908 5907 5907 5907 5907 5907 5907 5907 5906 5905 5905 5905 5905 5905 5904 5905 5906 5906 5907 5908 5908 5908 5908 5908 5908 5909 5909 5909 5909 5910 5911 5913 5914 5913 5914 5916 5915 5915 5915 5915 5915 5914 5914 5913 5913 5913 5913 5915 5915 5915 5916 5916 5916 5916 5916 5916 5916 5916 5917 5917 5918 5917 5917 5917 5917 5916 5916 5916 5916 5915 5915 5915 5916 5915 5915 5915 5914 5914 5914 5914 5914 5914 5914 5914 5914 5914 5914 5914 5913 5913 5913 5913 5913 5913 5913 5913
5908 5907 5907 5908 5908 5908 5908 5908 5907 5906 5906 5905 5905 5905 5906 5906 5905 5906 5907 5908 5909 5909 5909 5910 5910 5909 5910 5910 5911 5911 5910 5911 5913 5914 5914 5914 5916 5916 5916 5916 5916 5917 5916 5915 5914 5914 5914 5915 5915 5916 5916 5917 5917 5917 5916 5916 5916 5916 5917 5917 5918 5918 5918 5917 5917 5917 5916 5916 5917 5916 5915 5915 5915 5916 5915 5915 5915 5915 5915 5915 5914 5914 5915 5914 5914 5914 5915 5915 5914 5914 5913 5913 5913 5913 5913 5913 5913
5907 5907 5908 5908 5909 5908 5908 5907 5907 5906 5906 5906 5905 5906 5907 5907 5906 5908 5909 5909 5909 5909 5910 5911 5911 5910 5911 5911 5911 5912 5912 5912 5912 5914 5914 5914 5915 5916 5917 5917 5917 5917 5917 5916 5915 5915 5916 5916 5916 5916 5917 5917 5917 5917 5917 5917 5917 5917 5917 5918 5918 5918 5918 5918 5918 5917 5917 5917 5917 5916 5915 5915 5916 5916 5916 5915 5915 5915 5915 5915 5915 5915 5915 5915 5915 5915 5915 5915 5915 5914 5914 5913 5913 5913 5913 5913 5913
5907 5908 5908 5908 5908 5908 5908 5908 5907 5906 5906 5906 5905 5905 5907 5908 5908 5910 5910 5909 5910 5910 5911 5911 5911 5911 5910 5911 5912 5913 5914 5913 5913 5914 5914 5914 5915 5917 5918 5918 5918 5917 5917 5917 5916 5916 5916 5916 5917 5917 5917 5917 5917 5917 5917 5917 5917 5917 5918 5918 5918 5918 5918 5918 5918 5918 5917 5917 5917 5916 5916 5916 5916 5916 5916 5915 5915 5915 5915 5915 5915 5915 5915 5915 5915 5915 5915 5916 5915 5915 5914 5914 5913 5913 5914 5914 5914
5907 5908 5908 5908 5908 5909 5909 5909 5909 5907 5906 5906 5905 5905 5907 5909 5910 5910 5910 5910 5910 5910 5911 5911 5912 5911 5911 5912 5913 5913 5915 5914 5914 5914 5915 5915 5916 5917 5918 5919 5919 5918 5917 5917 5917 5917 5917 5917 5917 5917 5917 5917 5917 5917 5917 5917 5917 5918 5918 5918 5918 5918 5918 5918 5918 5918 5918 5918 5917 5917 5917 5917 5916 5916 5916 5916 5915 5915 5916 5916 5916 5916 5916 5916 5916 5915 5916 5916 5916 5915 5915 5914 5914 5913 5914 5914 5914
5908 5908 5908 5908 5908 5908 5909 5908 5908 5908 5906 5906 5905 5905 5906 5908 5910 5911 5911 5910 5910 5910 5911 5912 5912 5912 5911 5913 5913 5914 5915 5915 5915 5915 5915 5916 5917 5918 5919 5919 5919 5918 5918 5917 5917 5917 5917 5917 5917 5917 5917 5917 5918 5918 5918 5918 5918 5918 5919 5919 5919 5918 5918 5918 5918 5918 5918 5918 5918 5917 5918 5917 5917 5917 5916 5916 5916 5916 5916 5916 5916 5916 5916 5916 5916 5916 5916 5917 5916 5916 5915 5915 5914 5914 5914 5914 5914
5908 5908 5908 5908 5908 5908 5908 5908 5908 5907 5905 5904 5905 5906 5906 5909 5910 5911 5912 5911 5911 5911 5911 5912 5912 5912 5912 5913 5914 5915 5916 5916 5916 5916 5916 5916 5917 5918 5919 5919 5919 5919 5918 5917 5917 5917 5917 5917 5917 5917 5918 5918 5918 5918 5918 5918 5918 5919 5919 5919 5919 5919 5919 5919 5919 5919 5919 5919 5918 5918 5918 5918 5918 5917 5917 5917 5917 5917 5917 5917 5917 5917 5917 5917 5917 5917 5917 5917 5917 5916 5916 5915 5915 5915 5914 5914 5914
5908 5908 5909 5908 5908 5907 5907 5907 5907 5906 5904 5904 5906 5907 5908 5909 5910 5911 5912 5911 5911 5911 5911 5912 5912 5913 5913 5913 5914 5915 5916 5917 5917 5916 5916 5917 5918 5918 5919 5919 5919 5919 5919 5918 5918 5918 5917 5917 5917 5918 5918 5918 5918 5918 5918 5919 5919 5919 5919 5920 5919 5919 5919 5919 5919 5919 5919 5919 5919 5919 5919 5919 5918 5918 5918 5917 5918 5918 5918 5918 5918 5918 5918 5918 5917 5917 5918 5918 5917 5917 5916 5916 5916 5915 5915 5915 5914
5908 5908 5909 5908 5908 5907 5906 5906 5907 5906 5905 5906 5907 5908 5908 5910 5910 5911 5911 5911 5912 5911 5912 5912 5913 5913 5913 5913 5914 5915 5916 5917 5917 5917 5917 5918 5918 5919 5919 5919 5919 5919 5919 5919 5919 5918 5918 5918 5918 5918 5919 5919 5919 5919 5919 5920 5920 5920 5920 5920 5920 5920 5920 5920 5920 5920 5920 5919 5919 5919 5919 5919 5919 5918 5918 5918 5919 5918 5918 5918 5918 5918 5918 5918 5918 5918 5918 5918 5918 5918 5917 5917 5917 5917 5916 5916 5915
5908 5908 5909 5908 5907 5906 5905 5906 5907 5906 5906 5907 5908 5908 5908 5910 5910 5910 5910 5911 5911 5912 5912 5912 5913 5913 5914 5914 5913 5914 5915 5916 5917 5917 5918 5918 5919 5919 5920 5920 5920 5920 5919 5919 5919 5919 5919 5918 5918 5919 5919 5919 5919 5919 5920 5921 5921 5921 5921 5921 5921 5920 5920 5921 5921 5921 5920 5920 5920 5920 5920 5919 5919 5919 5919 5919 5919 5919 5919 5919 5919 5919 5919 5919 5919 5919 5919 5919 5919 5919 5919 5919 5918 5918 5918 5917 5916
5908 5908 5909 5908 5907 5907 5906 5906 5907 5906 5906 5907 5908 5909 5909 5910 5910 5910 5910 5911 5911 5912 5912 5912 5912 5913 5913 5914 5914 5914 5915 5916 5916 5917 5918 5919 5919 5920 5920 5920 5920 5920 5920 5920 5920 5920 5919 5919 5919 5919 5920 5919 5920 5920 5921 5922 5922 5922 5922 5922 5921 5921 5921 5921 5921 5921 5921 5921 5920 5920 5920 5920 5920 5920 5920 5920 5920 5921 5921 5921 5921 5920 5920 5920 5920 5920 5920 5920 5920 5921 5920 5920 5919 5919 5919 5918 5917
5908 5908 5908 5908 5908 5907 5907 5907 5908 5907 5907 5907 5908 5910 5911 5910 5910 5911 5911 5911 5911 5912 5912 5911 5912 5912 5913 5914 5914 5914 5915 5915 5916 5917 5918 5919 5919 5920 5920 5920 5920 5920 5920 5920 5920 5920 5920 5920 5920 5920 5920 5920 5921 5921 5922 5922 5923 5923 5922 5922 5921 5921 5922 5922 5922 5922 5922 5922 5921 5921 5921 5921 5921 5921 5922 5922 5922 5922 5922 5922 5922 5922 5922 5921 5921 5922 5922 5922 5922 5921 5921 5921 5920 5919 5919 5919 5919
5907 5908 5907 5908 5908 5908 5908 5908 5908 5908 5907 5907 5908 5910 5911 5910 5910 5911 5911 5911 5911 5911 5912 5911 5911 5912 5913 5913 5914 5915 5915 5915 5916 5917 5917 5918 5919 5919 5920 5920 5919 5920 5920 5920 5921 5921 5921 5921 5921 5921 5921 5921 5921 5921 5922 5922 5923 5923 5923 5922 5922 5923 5923 5923 5923 5923 5923 5923 5922 5922 5922 5922 5922 5923 5923 5923 5923 5924 5924 5924 5924 5923 5923 5923 5923 5923 5924 5924 5924 5923 5923 5923 5922 5921 5920 5920 5920
5907 5907 5907 5908 5909 5909 5908 5908 5909 5909 5908 5907 5907 5909 5909 5910 5911 5911 5911 5911 5910 5910 5911 5911 5911 5912 5913 5913 5914 5914 5915 5915 5916 5917 5918 5918 5919 5919 5919 5919 5919 5920 5920 5920 5921 5921 5921 5921 5921 5921 5921 5921 5921 5921 5922 5923 5923 5923 5923 5923 5923 5924 5924 5924 5924 5924 5924 5924 5923 5923 5923 5924 5924 5924 5924 5925 5925 5925 5925 5925 5925 5925 5925 5925 5925 5926 5926 5926 5926 5925 5925 5925 5924 5924 5922 5921 5921
5907 5908 5907 5908 5909 5909 5909 5909 5909 5909 5908 5908 5908 5909 5909 5910 5910 5909 5910 5910 5910 5910 5910 5910 5911 5911 5912 5912 5913 5914 5914 5915 5916 5917 5918 5918 5918 5918 5919 5919 5919 5920 5920 5920 5921 5921 5922 5921 5921 5921 5921 5921 5921 5921 5922 5923 5923 5923 5924 5924 5925 5925 5925 5925 5925 5925 5925 5925 5925 5925 5925 5925 5925 5925 5926 5926 5927 5927 5927 5927 5927 5927 5927 5927 5927 5928 5928 5928 5928 5927 5927 5926 5926 5926 5925 5924 5923
5907 5907 5907 5908 5909 5909 5909 5910 5910 5909 5908 5908 5908 5909 5909 5909 5909 5908 5909 5909 5909 5909 5909 5910 5910 5911 5912 5912 5912 5913 5914 5914 5915 5916 5917 5917 5918 5918 5918 5919 5919 5920 5920 5921 5921 5921 5922 5922 5921 5921 5921 5921 5921 5922 5922 5923 5923 5924 5925 5925 5926 5926 5926 5926 5926 5926 5926 5926 5926 5926 5926 5926 5927 5927 5927 5928 5928 5928 5928 5928 5928 5928 5928 5928 5929 5929 5929 5929 5929 5929 5928 5928 5928 5927 5927 5926 5925
5907 5906 5906 5908 5909 5909 5909 5910 5910 5910 5909 5907 5907 5908 5907 5908 5909 5909 5910 5909 5908 5909 5909 5909 5910 5910 5911 5912 5912 5912 5913 5914 5915 5915 5916 5917 5917 5917 5918 5918 5919 5919 5920 5920 5921 5921 5921 5922 5922 5922 5922 5922 5922 5923 5923 5924 5924 5925 5926 5927 5927 5927 5928 5928 5927 5927 5927 5927 5927 5927 5928 5928 5928 5928 5929 5929 5929 5929 5929 5929 5930 5930 5929 5930 5930 5930 5930 5931 5931 5931 5930 5929 5929 5928 5928 5927 5926
5907 5906 5905 5907 5908 5908 5909 5910 5910 5910 5910 5908 5907 5907 5906 5907 5909 5910 5911 5910 5909 5909 5909 5909 5910 5910 5911 5911 5911 5912 5912 5913 5913 5914 5915 5915 5916 5917 5917 5918 5919 5919 5920 5920 5921 5921 5921 5922 5922 5922 5922 5923 5923 5924 5924 5925 5925 5926 5927 5928 5928 5928 5928 5929 5928 5928 5928 5928 5928 5928 5929 5929 5929 5930 5930 5930 5930 5930 5931 5931 5931 5931 5930 5930 5931 5931 5931 5931 5931 5931 5931 5930 5930 5929 5929 5928 5927
5906 5906 5905 5905 5906 5907 5908 5909 5909 5910 5910 5909 5908 5908 5906 5907 5908 5910 5912 5912 5910 5910 5909 5909 5909 5910 5910 5911 5911 5911 5911 5912 5913 5913 5914 5914 5915 5916 5917 5918 5919 5919 5920 5920 5921 5921 5921 5922 5922 5923 5923 5924 5924 5925 5925 5925 5926 5927 5928 5928 5929 5929 5929 5929 5929 5929 5929 5929 5929 5930 5930 5930 5930 5931 5931 5931 5931 5932 5932 5932 5932 5932 5931 5931 5932 5932 5932 5932 5932 5932 5932 5931 5931 5930 5929 5928 5928
5906 5905 5904 5904 5904 5906 5907 5909 5909 5909 5910 5910 5909 5908 5907 5907 5908 5909 5911 5912 5911 5909 5909 5909 5909 5909 5909 5910 5910 5911 5911 5911 5912 5912 5913 5913 5914 5915 5917 5918 5918 5919 5920 5920 5921 5921 5921 5922 5923 5923 5924 5924 5925 5925 5925 5926 5927 5928 5928 5929 5929 5930 5930 5930 5930 5930 5930 5930 5931 5931 5931 5931 5931 5932 5932 5932 5932 5932 5932 5933 5932 5932 5932 5932 5932 5932 5933 5932 5932 5932 5932 5932 5931 5931 5930 5929 5929
5903 5903 5903 5902 5902 5904 5906 5907 5907 5908 5910 5911 5910 5909 5907 5907 5908 5908 5910 5910 5909 5908 5908 5908 5908 5907 5908 5909 5910 5910 5911 5911 5911 5912 5912 5913 5914 5915 5916 5917 5918 5919 5919 5920 5921 5921 5922 5922 5923 5924 5924 5925 5925 5925 5926 5927 5927 5928 5929 5929 5930 5930 5930 5931 5931 5931 5931 5931 5931 5931 5932 5932 5932 5932 5932 5933 5933 5933 5933 5933 5933 5933 5932 5932 5932 5932 5932 5932 5932 5932 5932 5931 5931 5931 5930 5930 5929
5901 5901 5901 5901 5900 5902 5904 5906 5907 5908 5909 5910 5911 5909 5907 5907 5907 5908 5909 5909 5908 5908 5907 5907 5907 5907 5907 5908 5909 5910 5910 5910 5911 5911 5912 5912 5914 5915 5916 5917 5917 5918 5919 5920 5921 5921 5922 5923 5923 5924 5924 5925 5925 5926 5926 5927 5928 5929 5930 5930 5930 5931 5931 5931 5932 5932 5932 5932 5932 5932 5932 5932 5933 5933 5933 5933 5933 5933 5933 5933 5933 5933 5933 5932 5932 5932 5931 5931 5931 5931 5931 5931 5931 5930 5930 5930 5929
5899 5899 5899 5899 5899 5899 5902 5905 5907 5908 5908 5908 5910 5908 5907 5906 5906 5907 5909 5910 5909 5907 5907 5906 5906 5907 5907 5907 5908 5909 5910 5910 5911 5911 5912 5912 5913 5914 5915 5916 5917 5918 5919 5920 5920 5921 5922 5923 5924 5924 5925 5925 5926 5926 5927 5928 5929 5929 5930 5930 5931 5931 5932 5932 5932 5932 5933 5933 5932 5933 5933 5932 5933 5933 5933 5933 5933 5933 5933 5933 5933 5933 5933 5933 5932 5932 5931 5931 5931 5931 5931 5931 5931 5930 5930 5929 5928
5898 5897 5897 5897 5896 5897 5900 5903 5906 5908 5907 5907 5908 5908 5907 5905 5905 5907 5909 5910 5910 5908 5906 5906 5906 5907 5907 5907 5907 5908 5909 5910 5910 5911 5912 5913 5913 5914 5915 5916 5917 5918 5919 5920 5920 5921 5922 5923 5924 5925 5925 5926 5926 5927 5928 5929 5929 5930 5930 5931 5931 5931 5932 5932 5933 5933 5933 5933 5933 5933 5933 5933 5934 5934 5934 5934 5934 5933 5933 5934 5933 5933 5933 5933 5933 5932 5932 5932 5932 5932 5931 5931 5931 5930 5929 5928 5927
5894 5894 5894 5893 5894 5896 5899 5901 5905 5906 5906 5906 5906 5907 5907 5904 5904 5906 5908 5910 5910 5908 5906 5906 5906 5906 5907 5907 5907 5907 5908 5909 5909 5910 5911 5912 5913 5914 5915 5916 5917 5918 5919 5920 5920 5921 5922 5923 5924 5925 5926 5927 5927 5928 5928 5929 5929 5930 5930 5931 5931 5931 5932 5932 5933 5933 5933 5933 5933 5934 5934 5934 5934 5934 5934 5934 5934 5934 5934 5934 5934 5933 5933 5933 5933 5933 5932 5933 5932 5932 5931 5931 5930 5929 5928 5926 5926
5892 5892 5891 5891 5893 5895 5897 5900 5903 5904 5904 5905 5906 5907 5906 5903 5903 5905 5907 5909 5910 5908 5906 5906 5906 5906 5906 5907 5906 5907 5907 5908 5908 5910 5911 5912 5913 5914 5915 5916 5917 5918 5919 5920 5921 5922 5923 5924 5925 5926 5927 5927 5928 5928 5929 5929 5930 5930 5930 5931 5931 5931 5932 5932 5933 5933 5934 5934 5934 5935 5935 5934 5935 5935 5935 5935 5935 5935 5935 5935 5934 5934 5933 5933 5933 5933 5932 5932 5932 5931 5930 5930 5928 5928 5927 5925 5924
5891 5891 5891 5892 5893 5894 5897 5899 5901 5903 5904 5905 5905 5907 5905 5902 5902 5905 5906 5908 5909 5908 5906 5906 5906 5906 5906 5906 5906 5906 5907 5907 5908 5909 5910 5911 5912 5914 5914 5915 5916 5918 5919 5920 5921 5922 5923 5924 5925 5926 5927 5928 5928 5929 5929 5929 5930 5930 5930 5931 5931 5932 5932 5932 5933 5933 5934 5934 5935 5935 5935 5935 5935 5936 5936 5936 5936 5936 5936 5935 5935 5934 5934 5933 5933 5932 5932 5931 5931 5930 5929 5928 5927 5926 5926 5925 5924
5890 5891 5892 5893 5893 5894 5896 5899 5901 5902 5903 5904 5905 5906 5905 5902 5901 5904 5906 5908 5909 5908 5906 5906 5907 5907 5907 5907 5906 5906 5906 5907 5907 5908 5910 5911 5912 5913 5914 5915 5916 5917 5918 5919 5921 5922 5923 5924 5925 5926 5927 5928 5928 5929 5929 5929 5929 5930 5930 5931 5931 5932 5932 5932 5933 5933 5934 5934 5935 5935 5935 5935 5935 5936 5936 5936 5936 5935 5936 5935 5935 5934 5934 5933 5933 5932 5931 5931 5930 5929 5928 5927 5926 5925 5924 5924 5924
5889 5891 5892 5893 5893 5894 5895 5899 5901 5902 5903 5904 5904 5905 5904 5902 5902 5903 5906 5907 5908 5907 5906 5906 5907 5907 5907 5907 5907 5906 5906 5906 5907 5908 5909 5910 5911 5912 5913 5914 5915 5916 5918 5919 5920 5921 5923 5924 5925 5926 5927 5928 5928 5928 5929 5929 5929 5929 5930 5931 5931 5931 5932 5932 5933 5934 5934 5934 5935 5936 5936 5936 5936 5936 5936 5936 5936 5935 5935 5935 5934 5933 5933 5932 5932 5931 5931 5930 5929 5928 5927 5926 5925 5924 5924 5923 5923
5888 5890 5891 5892 5893 5894 5894 5898 5901 5901 5902 5903 5903 5904 5904 5903 5902 5903 5905 5906 5906 5906 5906 5907 5907 5907 5907 5907 5907 5906 5906 5906 5907 5907 5908 5909 5910 5911 5912 5914 5915 5916 5917 5918 5920 5921 5922 5924 5925 5926 5926 5927 5928 5928 5928 5928 5929 5929 5930 5930 5931 5931 5932 5932 5933 5933 5934 5935 5936 5936 5936 5936 5936 5936 5936 5936 5936 5935 5934 5934 5933 5933 5932 5931 5931 5931 5930 5929 5928 5927 5926 5925 5924 5923 5923 5922 5921
5887 5889 5890 5891 5893 5893 5894 5898 5900 5900 5900 5901 5902 5903 5904 5903 5902 5902 5903 5904 5904 5905 5906 5907 5907 5907 5907 5907 5907 5906 5906 5907 5907 5907 5908 5909 5910 5911 5912 5913 5914 5915 5917 5918 5919 5921 5922 5923 5924 5925 5926 5926 5927 5927 5928 5928 5928 5929 5929 5929 5930 5931 5931 5932 5932 5933 5934 5935 5936 5936 5936 5936 5936 5936 5936 5936 5935 5935 5934 5933 5933 5932 5932 5931 5930 5930 5929 5928 5927 5926 5925 5924 5923 5922 5921 5920 5920
5885 5887 5888 5890 5890 5891 5893 5896 5898 5898 5899 5899 5901 5902 5903 5903 5902 5901 5901 5902 5902 5903 5905 5906 5907 5907 5907 5906 5906 5906 5907 5907 5907 5908 5908 5909 5910 5911 5911 5913 5914 5915 5916 5918 5919 5920 5921 5922 5923 5924 5925 5926 5926 5926 5927 5927 5927 5928 5928 5929 5929 5930 5931 5931 5932 5933 5934 5935 5935 5935 5935 5936 5936 5936 5936 5935 5935 5934 5934 5933 5933 5932 5931 5931 5930 5929 5928 5927 5926 5925 5924 5923 5922 5921 5919 5919 5918
5883 5885 5886 5888 5889 5889 5891 5892 5893 5895 5897 5898 5900 5902 5902 5902 5901 5900 5900 5901 5901 5902 5903 5905 5906 5906 5906 5906 5906 5906 5907 5907 5908 5908 5909 5909 5910 5911 5912 5913 5914 5915 5916 5918 5919 5920 5921 5922 5923 5924 5924 5925 5925 5926 5926 5927 5927 5927 5928 5928 5929 5930 5931 5931 5932 5933 5934 5934 5935 5935 5935 5935 5935 5935 5935 5935 5935 5934 5934 5933 5932 5931 5930 5929 5928 5928 5926 5926 5925 5923 5922 5921 5920 5919 5918 5917 5917
5881 5883 5884 5886 5888 5889 5889 5889 5891 5893 5895 5897 5899 5901 5901 5900 5900 5898 5899 5900 5901 5901 5902 5904 5905 5905 5905 5905 5905 5906 5906 5907 5907 5908 5908 5909 5910 5911 5912 5913 5914 5915 5916 5918 5919 5920 5921 5922 5923 5923 5924 5925 5925 5925 5926 5926 5927 5927 5928 5928 5929 5930 5930 5931 5932 5933 5934 5934 5935 5935 5935 5935 5935 5935 5935 5935 5935 5934 5933 5932 5931 5930 5929 5928 5927 5926 5925 5924 5923 5922 5920 5919 5918 5917 5917 5916 5915
5878 5880 5882 5885 5887 5888 5888 5889 5890 5892 5893 5896 5898 5900 5900 5899 5898 5896 5897 5899 5899 5900 5901 5903 5904 5904 5905 5905 5905 5905 5905 5906 5907 5907 5908 5908 5909 5910 5911 5912 5913 5915 5916 5917 5919 5920 5921 5922 5922 5923 5924 5924 5925 5925 5925 5926 5926 5927 5927 5928 5929 5930 5930 5931 5932 5933 5933 5934 5934 5934 5934 5934 5934 5934 5934 5934 5934 5933 5932 5931 5930 5929 5928 5927 5926 5925 5924 5923 5922 5920 5919 5917 5917 5916 5915 5914 5913
5876 5877 5879 5883 5886 5887 5888 5889 5890 5890 5891 5893 5896 5897 5897 5896 5896 5895 5896 5897 5897 5898 5899 5901 5903 5904 5904 5904 5904 5905 5905 5906 5906 5907 5907 5908 5909 5910 5911 5912 5913 5914 5915 5916 5918 5919 5920 5921 5922 5922 5923 5924 5924 5925 5925 5926 5926 5927 5927 5928 5928 5929 5930 5931 5932 5933 5933 5933 5933 5933 5934 5933 5933 5933 5933 5932 5932 5931 5930 5929 5929 5928 5927 5926 5925 5924 5923 5922 5921 5919 5918 5916 5915 5914 5913 5912 5911
5873 5875 5877 5881 5884 5886 5887 5888 5888 5887 5888 5891 5893 5894 5893 5894 5894 5895 5895 5895 5895 5896 5897 5899 5901 5903 5904 5904 5904 5904 5904 5905 5906 5907 5907 5908 5908 5909 5910 5911 5912 5913 5914 5915 5916 5917 5919 5920 5921 5922 5922 5922 5923 5924 5925 5926 5926 5926 5927 5927 5928 5929 5930 5931 5931 5932 5932 5933 5933 5933 5933 5933 5932 5932 5932 5931 5930 5929 5928 5928 5928 5927 5926 5925 5924 5922 5921 5920 5919 5918 5917 5915 5914 5913 5912 5911 5910
5871 5874 5877 5879 5881 5884 5885 5886 5886 5885 5886 5889 5890 5891 5891 5891 5891 5893 5894 5894 5894 5894 5895 5897 5899 5901 5903 5904 5904 5904 5904 5904 5905 5906 5907 5907 5908 5909 5910 5911 5912 5913 5913 5914 5915 5916 5917 5918 5919 5920 5921 5921 5922 5923 5924 5925 5925 5926 5926 5927 5927 5928 5929 5930 5931 5931 5932 5932 5932 5932 5932 5932 5932 5931 5930 5929 5928 5927 5927 5927 5927 5926 5925 5924 5922 5921 5919 5918 5917 5916 5916 5914 5913 5912 5911 5910 5909
5870 5874 5876 5877 5879 5880 5882 5884 5884 5884 5884 5885 5885 5887 5888 5887 5888 5891 5891 5891 5891 5892 5893 5895 5897 5899 5902 5903 5904 5903 5903 5903 5903 5904 5906 5907 5907 5908 5909 5910 5911 5911 5912 5914 5915 5916 5916 5917 5918 5919 5920 5920 5920 5921 5922 5923 5924 5925 5925 5926 5927 5928 5929 5929 5930 5931 5931 5931 5931 5932 5931 5931 5930 5930 5929 5927 5926 5926 5926 5926 5925 5924 5923 5922 5921 5919 5917 5916 5914 5914 5914 5913 5913 5911 5910 5909 5907
5870 5873 5872 5874 5877 5878 5881 5882 5882 5883 5882 5879 5880 5883 5884 5883 5886 5889 5888 5888 5888 5890 5891 5893 5894 5896 5899 5901 5903 5903 5902 5902 5902 5903 5904 5905 5906 5907 5908 5909 5910 5911 5912 5913 5914 5914 5915 5916 5917 5917 5918 5919 5919 5920 5920 5922 5923 5924 5925 5925 5926 5927 5928 5928 5929 5930 5930 5930 5930 5930 5930 5929 5928 5928 5927 5926 5925 5926 5926 5925 5924 5923 5921 5920 5919 5917 5916 5914 5912 5911 5912 5913 5912 5910 5908 5907 5905
5869 5870 5870 5872 5874 5876 5878 5878 5879 5880 5876 5874 5876 5879 5879 5879 5882 5885 5884 5883 5886 5889 5890 5891 5892 5894 5896 5899 5901 5902 5902 5901 5901 5902 5903 5904 5905 5906 5907 5908 5909 5910 5910 5912 5912 5913 5914 5915 5915 5916 5917 5917 5918 5919 5919 5920 5921 5922 5923 5924 5925 5926 5927 5927 5928 5928 5929 5929 5929 5929 5928 5927 5927 5926 5925 5925 5925 5925 5924 5924 5923 5922 5920 5918 5917 5916 5914 5912 5910 5909 5910 5911 5910 5909 5907 5904 5903
5866 5866 5867 5869 5870 5873 5874 5874 5876 5874 5868 5869 5874 5876 5876 5876 5877 5880 5880 5881 5886 5888 5889 5890 5891 5892 5894 5896 5898 5900 5901 5901 5900 5900 5901 5902 5903 5904 5905 5906 5907 5908 5909 5910 5911 5912 5912 5913 5914 5914 5915 5916 5917 5918 5918 5919 5920 5921 5922 5923 5925 5926 5926 5926 5926 5927 5927 5928 5927 5927 5926 5925 5925 5924 5924 5924 5924 5923 5923 5923 5922 5920 5919 5917 5916 5914 5913 5911 5909 5909 5909 5909 5909 5908 5905 5903 5901
5861 5861 5863 5865 5867 5869 5870 5870 5871 5865 5861 5866 5872 5874 5873 5871 5872 5876 5878 5881 5885 5886 5887 5888 5889 5890 5892 5893 5895 5897 5899 5899 5899 5899 5900 5900 5901 5902 5903 5904 5905 5906 5907 5908 5908 5909 5910 5911 5912 5912 5913 5914 5915 5916 5917 5917 5918 5920 5921 5922 5924 5925 5925 5925 5925 5925 5926 5926 5926 5925 5924 5923 5923 5923 5923 5923 5922 5922 5922 5922 5921 5919 5918 5917 5915 5913 5912 5910 5909 5909 5908 5908 5908 5906 5904 5902 5901
5856 5857 5859 5860 5861 5863 5862 5862 5862 5858 5859 5866 5871 5872 5868 5865 5869 5874 5876 5879 5881 5882 5884 5886 5887 5888 5889 5890 5891 5893 5895 5897 5898 5898 5898 5899 5899 5901 5902 5902 5903 5904 5905 5906 5906 5907 5908 5909 5909 5910 5911 5912 5912 5913 5915 5916 5916 5917 5919 5921 5922 5923 5924 5924 5923 5924 5924 5923 5923 5922 5922 5921 5921 5921 5921 5921 5920 5920 5920 5920 5920 5918 5917 5916 5914 5913 5911 5910 5909 5908 5908 5907 5906 5905 5903 5902 5900
5852 5853 5853 5853 5855 5855 5854 5856 5857 5856 5859 5865 5868 5867 5862 5861 5866 5870 5873 5875 5878 5880 5882 5884 5885 5886 5887 5887 5888 5890 5892 5894 5896 5897 5897 5897 5898 5899 5899 5900 5901 5902 5903 5904 5904 5905 5906 5906 5907 5908 5909 5909 5910 5911 5912 5913 5914 5915 5917 5919 5921 5922 5922 5922 5922 5922 5922 5921 5920 5920 5919 5918 5919 5920 5920 5919 5919 5919 5919 5919 5918 5917 5916 5915 5914 5912 5911 5910 5908 5907 5907 5906 5904 5903 5902 5900 5898
5850 5851 5851 5850 5850 5850 5851 5854 5855 5856 5858 5862 5865 5861 5856 5859 5863 5866 5870 5872 5874 5877 5879 5882 5883 5884 5885 5885 5886 5887 5890 5892 5894 5895 5896 5896 5896 5897 5897 5898 5899 5900 5901 5902 5903 5903 5904 5904 5905 5906 5906 5907 5908 5909 5910 5911 5912 5913 5915 5917 5918 5919 5920 5920 5920 5920 5920 5918 5918 5917 5916 5916 5917 5918 5918 5917 5917 5918 5918 5917 5917 5916 5915 5914 5912 5911 5910 5909 5908 5906 5905 5904 5902 5901 5900 5899 5897
5846 5848 5847 5844 5847 5850 5852 5853 5854 5856 5856 5857 5858 5855 5854 5859 5862 5865 5868 5869 5870 5874 5876 5878 5880 5881 5882 5882 5883 5885 5887 5890 5892 5893 5894 5895 5895 5895 5895 5896 5897 5898 5899 5900 5901 5902 5902 5902 5903 5903 5904 5905 5906 5907 5907 5908 5909 5911 5913 5914 5916 5917 5917 5918 5918 5918 5917 5916 5915 5915 5914 5914 5915 5916 5916 5916 5916 5916 5916 5916 5915 5915 5913 5912 5911 5909 5908 5908 5906 5905 5903 5902 5901 5900 5899 5898 5896
5843 5843 5841 5842 5847 5851 5851 5851 5853 5855 5852 5851 5853 5852 5853 5857 5859 5862 5865 5866 5868 5871 5873 5876 5877 5879 5880 5880 5881 5882 5884 5886 5888 5890 5892 5893 5893 5893 5894 5894 5895 5895 5896 5898 5899 5900 5900 5900 5900 5901 5902 5903 5903 5904 5905 5905 5907 5908 5910 5912 5913 5914 5914 5915 5916 5915 5914 5913 5913 5912 5912 5913 5914 5914 5914 5914 5914 5915 5915 5914 5914 5913 5912 5910 5909 5909 5908 5906 5905 5903 5901 5900 5899 5898 5897 5896 5894
5837 5837 5840 5844 5847 5847 5847 5847 5849 5850 5846 5845 5849 5850 5851 5853 5854 5858 5862 5863 5865 5868 5870 5873 5875 5876 5877 5878 5879 5880 5881 5883 5885 5886 5888 5890 5891 5891 5892 5892 5892 5893 5894 5895 5897 5897 5897 5897 5898 5899 5900 5900 5900 5901 5902 5902 5904 5905 5907 5909 5910 5910 5910 5911 5913 5912 5911 5911 5910 5909 5909 5911 5912 5912 5913 5913 5913 5913 5913 5913 5912 5911 5910 5909 5908 5907 5906 5905 5903 5901 5899 5898 5897 5896 5895 5894 5893
5833 5835 5839 5841 5840 5840 5841 5841 5841 5842 5842 5842 5845 5846 5847 5848 5850 5855 5859 5860 5862 5865 5868 5870 5871 5873 5874 5876 5877 5878 5879 5880 5881 5883 5884 5886 5888 5889 5889 5889 5890 5891 5892 5893 5893 5894 5894 5895 5896 5897 5897 5897 5897 5898 5899 5900 5901 5902 5904 5906 5906 5906 5907 5908 5909 5909 5908 5907 5906 5906 5907 5909 5910 5911 5911 5911 5911 5911 5911 5911 5910 5909 5908 5906 5905 5905 5904 5902 5901 5899 5898 5896 5895 5895 5894 5893 5892
5829 5831 5832 5834 5835 5836 5837 5836 5835 5837 5839 5840 5842 5841 5842 5845 5847 5851 5855 5857 5859 5862 5864 5866 5868 5870 5871 5873 5875 5875 5876 5877 5878 5880 5881 5883 5885 5886 5887 5887 5887 5888 5889 5890 5890 5891 5892 5893 5894 5895 5895 5895 5895 5896 5896 5897 5898 5899 5901 5902 5903 5903 5903 5904 5905 5905 5905 5903 5903 5903 5905 5907 5908 5908 5909 5909 5909 5909 5909 5908 5908 5906 5905 5904 5903 5902 5901 5900 5899 5898 5896 5895 5894 5893 5892 5891 5890
5824 5824 5825 5827 5830 5832 5833 5832 5832 5835 5836 5837 5838 5837 5838 5843 5845 5848 5851 5853 5855 5858 5861 5863 5865 5866 5868 5870 5872 5873 5874 5875 5876 5878 5880 5880 5881 5882 5883 5883 5884 5885 5886 5887 5887 5888 5890 5891 5892 5893 5893 5893 5893 5894 5894 5895 5896 5897 5898 5899 5899 5899 5899 5900 5900 5901 5901 5900 5899 5901 5903 5905 5906 5906 5907 5907 5907 5907 5907 5906 5905 5904 5903 5902 5900 5900 5899 5898 5897 5896 5895 5894 5893 5892 5890 5889 5888
5820 5821 5822 5824 5827 5828 5829 5828 5829 5831 5832 5832 5835 5833 5835 5841 5843 5845 5848 5850 5852 5856 5858 5860 5862 5864 5866 5868 5869 5871 5872 5873 5874 5876 5877 5878 5878 5879 5879 5880 5881 5882 5883 5884 5885 5886 5887 5889 5890 5890 5890 5891 5891 5892 5893 5894 5895 5895 5896 5896 5896 5895 5896 5896 5897 5897 5897 5897 5897 5899 5901 5902 5904 5904 5904 5905 5905 5905 5904 5904 5903 5902 5901 5900 5898 5897 5897 5896 5895 5894 5894 5892 5891 5890 5888 5887 5885